Wind_Speed
12 13 16 14 14 13 13 12 11 10 10 11 10 11 12 14 15 14 13 12 11 11 11 12 12 12 13 13 13 13 13 14 14 14 14 13 12 12 11 11 10 9 9 9 10 10 10 10 9 9 8 8 8 8 9 10 12 13 13 13 13 13 12 12 11 11 11 10 10 9 9 10 11 11 10 10 9 9 9 9 10 10 11 11 11
9 11 15 14 14 13 13 12 10 10 9 9 9 9 11 12 14 14 14 12 11 10 10 11 11 12 12 13 13 13 13 13 14 14 14 13 13 12 12 12 11 10 9 9 9 9 9 10 9 9 8 8 9 9 11 12 13 13 13 12 12 12 12 11 11 11 10 10 10 9 9 9 10 10 10 9 9 9 10 10 11 11 12 12 12
7 8 12 13 13 13 12 12 10 9 9 9 8 8 9 10 12 13 13 13 11 10 10 10 10 11 11 12 12 12 12 12 13 13 14 13 13 13 13 12 12 11 10 9 9 9 9 9 9 9 9 10 10 11 12 13 13 13 12 12 12 11 11 10 10 9 9 8 8 9 9 9 10 10 10 10 11 11 11 11 11 12 12 13 13
9 8 9 12 12 12 12 11 11 9 8 8 7 6 7 8 10 11 12 12 11 10 10 9 9 9 10 11 12 12 12 12 12 12 13 13 13 13 13 13 12 12 10 9 9 8 8 9 9 9 10 11 12 13 14 14 14 13 12 12 11 11 10 9 9 8 7 6 7 8 7 7 9 10 11 11 11 11 12 12 12 12 13 14 14
12 10 8 10 10 11 11 11 10 9 8 7 7 6 6 7 8 9 10 11 11 10 10 9 9 8 9 10 11 12 12 12 12 12 12 12 12 13 13 13 13 12 11 10 9 9 9 9 9 9 10 11 13 14 14 14 14 13 12 12 11 10 10 9 8 7 7 6 7 6 6 6 8 10 10 10 11 11 11 12 13 14 15 15 16
12 11 9 9 9 10 10 9 9 9 8 7 6 5 5 5 6 7 8 9 10 10 9 9 8 8 8 9 10 11 12 12 12 11 11 11 11 12 13 13 13 13 12 11 10 10 9 9 9 9 10 11 13 14 14 13 13 13 12 12 11 10 9 8 7 6 5 6 6 4 4 5 8 9 10 10 11 11 12 13 14 15 16 16 17
12 12 11 9 9 9 9 9 8 8 8 6 6 4 4 3 4 5 6 7 8 8 8 8 8 7 7 8 9 10 11 11 12 11 11 10 10 11 12 13 13 13 13 11 10 10 10 10 10 10 10 11 12 13 13 13 12 12 12 11 10 9 8 7 7 7 5 4 4 3 3 5 7 9 10 10 11 13 13 14 15 16 16 17 17
11 12 11 11 9 9 9 9 8 8 7 6 5 4 3 2 3 3 4 5 6 7 7 8 7 7 7 7 8 10 11 11 11 11 11 10 9 10 11 12 13 12 13 12 11 11 11 10 10 10 10 11 12 12 12 12 12 12 11 10 9 8 7 6 7 8 6 4 2 2 2 4 6 8 10 11 12 13 14 15 16 16 17 17 17
9 10 11 11 10 10 9 9 9 8 7 6 5 4 3 2 1 2 3 4 4 5 5 6 7 6 6 6 7 8 10 10 11 11 11 10 9 9 10 11 12 12 12 12 11 11 11 11 11 11 11 11 12 12 12 12 11 11 10 9 8 6 5 5 6 7 7 5 1 1 2 4 6 8 10 11 12 13 15 15 16 16 16 16 17
8 9 10 10 10 10 10 10 10 9 9 7 6 6 4 3 1 1 2 3 3 3 3 5 6 5 5 5 6 7 9 9 10 10 11 10 9 8 9 10 11 11 12 12 11 11 10 10 11 11 11 12 12 12 12 11 11 10 8 7 6 4 3 3 4 5 4 3 2 1 3 5 7 9 11 11 13 14 15 16 16 16 16 17 17
8 8 9 10 10 10 10 10 10 11 10 9 8 7 6 5 3 2 2 2 2 2 2 3 4 5 4 5 5 6 7 8 9 10 10 10 9 8 8 9 10 11 11 11 12 11 10 10 10 11 11 12 12 12 11 11 10 8 7 6 5 3 3 1 2 5 3 3 3 3 5 6 8 9 11 12 13 14 15 16 16 17 17 17 18
7 8 8 9 10 10 10 10 11 12 11 11 10 9 8 7 6 4 3 2 2 1 1 1 2 3 4 4 4 5 6 7 8 9 9 9 9 8 8 8 9 10 10 11 11 11 10 10 9 10 11 11 11 11 11 10 9 7 6 5 3 2 2 1 3 4 3 4 4 4 6 7 8 10 11 13 14 15 16 16 17 17 17 17 17
7 7 7 8 9 9 9 10 11 12 12 12 12 10 9 9 7 6 5 4 4 2 2 1 1 1 3 3 3 4 5 5 6 8 8 8 8 8 8 8 8 9 9 10 10 11 10 10 9 9 10 11 11 10 10 9 8 6 5 4 2 1 3 3 5 5 4 5 6 6 6 7 9 10 12 13 14 15 16 16 17 16 16 16 16
8 7 7 7 7 8 8 8 10 12 12 12 12 11 11 10 9 8 7 6 6 4 2 2 2 1 1 2 2 3 3 4 5 6 7 7 7 7 8 8 8 8 9 9 9 10 10 10 9 9 9 10 10 10 9 8 7 6 5 3 1 2 4 5 6 6 5 6 6 7 7 8 9 11 13 14 15 15 15 16 15 15 15 16 16
9 8 7 6 6 7 7 8 9 11 11 12 12 12 12 11 10 9 9 8 8 6 4 4 3 3 1 1 1 2 2 3 3 4 6 6 6 7 7 7 7 8 8 8 9 9 10 10 10 9 9 9 9 9 9 8 7 6 5 3 1 3 4 4 5 6 6 6 7 8 8 9 10 12 14 14 14 15 14 14 14 14 15 16 16
11 9 8 6 5 6 6 7 9 10 10 11 11 11 12 11 11 10 10 10 9 7 6 5 4 4 3 2 1 1 1 1 2 3 4 5 5 6 7 7 7 7 7 7 8 9 9 10 10 10 9 9 9 9 9 9 8 6 5 3 1 3 3 4 5 6 7 7 8 8 9 10 11 13 14 14 14 13 13 13 13 14 15 16 17
13 11 9 7 5 5 6 7 8 8 8 9 10 10 11 10 10 11 11 11 10 9 7 6 5 5 4 3 2 1 0 0 1 2 3 3 4 5 6 6 7 7 7 7 8 8 9 10 10 10 10 10 10 10 10 9 7 6 5 3 2 3 3 4 5 6 7 8 8 8 10 11 12 12 13 13 12 11 12 13 14 15 16 17 18
15 13 11 8 6 6 6 7 7 7 7 8 9 9 9 9 9 11 11 12 11 10 8 8 7 6 5 5 3 2 1 1 1 1 2 2 3 4 5 6 6 7 7 8 8 8 9 10 10 11 11 10 10 10 10 9 7 6 5 4 2 3 4 5 5 6 6 7 8 9 11 11 11 11 11 11 11 11 12 13 15 16 17 17 18
16 15 12 10 7 6 7 7 6 6 6 7 8 7 7 7 8 10 11 12 11 10 9 9 8 7 6 6 5 3 2 2 2 2 2 2 2 3 4 4 5 7 7 8 8 9 10 10 11 11 11 11 11 11 10 9 8 6 5 4 3 3 5 6 6 6 7 8 9 10 10 10 10 10 10 10 11 12 13 14 15 16 17 17 18
18 17 14 11 8 7 7 7 6 6 6 7 7 6 6 6 7 9 10 11 12 11 10 10 9 8 7 6 5 5 4 4 3 3 3 2 2 2 3 3 5 6 8 9 9 10 10 11 12 12 11 11 11 11 10 9 8 7 6 4 3 4 5 6 7 7 8 8 9 9 9 8 8 8 9 9 11 12 13 14 15 16 17 17 17
18 18 17 12 9 9 8 8 7 6 7 7 6 6 5 5 6 8 10 11 12 12 11 11 10 9 7 6 6 6 6 5 4 3 3 3 3 3 3 3 4 6 8 9 10 11 11 12 12 12 12 12 12 11 10 9 8 7 6 5 4 5 6 7 7 8 9 9 9 9 8 7 7 7 8 9 10 11 13 14 15 16 17 17 17
18 19 17 13 10 10 9 8 7 6 7 6 6 5 5 6 6 8 9 11 12 13 12 11 11 9 8 7 7 7 7 6 5 4 4 5 5 4 4 4 5 6 8 9 10 11 11 11 11 11 12 12 12 11 10 9 8 6 6 5 6 7 7 7 7 8 9 9 9 8 7 6 6 7 9 10 11 11 12 14 15 16 17 18 18
18 19 17 14 11 11 10 8 7 6 6 6 5 5 6 6 6 8 9 11 13 13 13 12 12 10 8 7 7 8 7 7 5 5 6 6 6 5 5 5 5 7 8 9 9 10 10 10 11 11 12 12 12 10 8 7 7 6 6 6 7 8 7 7 7 8 8 8 8 6 6 6 7 8 9 10 11 12 13 14 15 17 18 19 19
17 19 17 15 13 12 11 10 7 6 6 6 6 6 6 6 6 7 9 11 13 14 14 13 12 10 9 9 8 8 8 8 6 5 6 7 7 6 6 6 6 7 8 8 9 9 10 10 11 11 11 11 11 9 6 6 7 7 6 6 8 9 8 7 7 6 7 7 6 5 5 6 8 9 10 11 12 13 14 15 16 17 19 19 20
18 20 19 16 14 13 13 11 8 7 6 6 7 7 7 6 6 6 9 11 13 14 14 13 13 11 10 10 10 9 9 9 7 6 7 8 8 7 6 6 6 7 7 8 8 8 9 9 9 9 9 9 9 8 7 8 9 8 7 6 8 9 8 7 6 6 7 7 6 5 6 7 9 10 11 12 13 14 15 16 17 18 19 20 20
21 21 20 16 15 15 14 12 9 7 6 7 8 7 6 6 5 6 8 10 12 14 14 14 13 12 11 11 11 10 10 9 7 7 7 8 7 7 7 7 6 7 7 7 8 8 8 8 8 8 8 8 9 8 8 9 10 9 8 8 9 9 8 7 6 6 6 6 6 6 7 8 9 11 11 12 14 15 17 18 19 20 20 20 21
22 21 19 17 17 16 14 12 10 8 7 7 9 8 6 6 5 6 7 9 11 13 14 14 14 13 12 12 11 11 10 9 8 8 7 8 8 7 7 7 7 7 7 8 8 8 9 8 8 9 9 9 9 10 10 10 10 9 9 9 9 9 8 7 6 5 5 7 8 8 9 9 10 11 12 14 15 16 18 19 19 20 21 21 21
23 20 19 18 18 17 14 12 11 10 8 8 9 8 6 6 6 7 7 8 9 12 14 14 14 14 13 12 12 10 9 10 10 9 8 8 8 7 7 7 7 7 8 8 7 8 9 9 9 9 10 9 9 10 10 10 9 9 10 10 8 7 7 7 5 4 6 8 9 10 10 11 12 13 14 15 16 17 18 19 20 20 21 22 22
24 21 20 19 19 18 14 13 12 11 10 9 10 9 7 6 7 8 8 8 8 10 12 14 15 14 12 12 11 9 9 11 11 10 8 8 7 7 7 7 7 8 8 7 7 8 8 9 9 10 10 9 9 11 11 10 10 9 9 8 7 6 6 6 4 4 6 8 10 11 11 12 13 14 15 16 17 18 19 20 21 21 21 22 23
24 23 21 19 19 18 15 13 13 13 12 11 10 9 8 7 8 9 9 9 9 9 11 14 14 12 11 11 11 10 10 11 10 9 8 7 7 7 8 8 7 8 8 7 7 8 8 9 9 10 10 9 9 11 11 10 8 6 5 6 6 6 6 5 4 5 6 7 9 11 13 13 14 15 16 17 18 20 20 20 21 21 21 23 23
23 23 21 19 19 17 16 14 14 15 14 12 10 9 8 8 9 10 11 10 10 10 11 13 13 11 12 12 11 10 9 10 9 8 7 7 6 6 7 8 7 7 7 7 7 8 8 9 9 10 10 9 8 9 9 7 5 4 4 6 6 6 5 5 5 6 7 8 9 11 13 15 15 16 17 19 20 20 21 21 21 21 22 23 24
23 22 20 19 18 16 15 15 15 16 15 13 11 9 9 9 9 11 12 11 11 11 12 13 14 13 13 12 10 9 9 9 8 7 7 7 7 7 7 8 8 7 7 8 8 8 8 8 9 10 10 9 7 7 6 5 4 4 6 7 7 7 6 5 6 7 8 9 10 12 14 16 17 18 19 20 20 20 21 21 21 22 23 23 23
22 21 21 19 17 15 15 15 16 17 16 15 12 10 10 10 10 11 12 13 12 12 12 15 16 14 13 11 10 9 9 9 9 8 8 8 8 8 8 8 8 8 8 9 9 8 8 8 8 9 8 7 6 5 5 4 4 5 7 8 8 8 7 7 7 8 9 11 12 13 14 16 18 19 19 20 20 20 20 21 21 22 23 23 23
19 18 20 19 17 17 16 15 16 17 17 15 13 11 11 11 11 11 13 14 13 11 13 17 16 14 12 11 11 10 9 9 8 8 8 9 8 7 7 8 8 8 9 9 8 8 7 8 8 7 6 5 5 5 5 5 6 6 7 6 7 8 9 9 10 10 11 12 13 14 15 16 17 18 19 19 19 20 20 21 22 23 23 23 22
17 17 21 21 19 18 17 15 17 18 18 16 14 12 11 11 11 12 14 14 12 12 14 17 16 13 12 11 10 10 9 9 8 8 9 9 8 6 7 7 8 8 9 9 8 7 7 8 8 7 6 4 4 5 5 6 7 7 6 6 7 9 10 11 11 12 13 13 14 15 15 16 17 18 18 19 19 19 20 21 23 23 22 22 21
20 21 23 24 21 20 19 17 19 19 18 17 14 12 12 11 12 14 15 15 12 12 14 16 15 13 12 11 10 9 9 9 8 8 9 9 8 7 8 8 8 9 9 9 7 7 8 9 8 7 6 4 3 4 5 7 8 8 7 7 8 9 10 11 12 13 14 15 15 16 16 16 17 17 18 18 19 19 21 22 22 22 22 21 20
25 24 23 25 23 22 21 20 20 20 19 17 15 13 12 11 12 15 16 14 12 12 14 16 15 13 12 11 10 10 9 9 9 10 10 10 9 9 9 9 8 9 9 8 7 8 9 9 8 6 5 4 3 4 6 8 9 9 8 8 9 9 10 12 13 14 15 16 16 17 17 17 17 17 17 18 19 20 21 22 22 21 21 20 20
25 22 23 25 25 24 23 22 22 22 20 18 16 14 13 11 12 15 16 13 11 13 14 15 15 13 13 11 10 10 10 10 10 11 11 12 11 10 9 10 8 8 8 7 8 10 10 10 8 6 6 6 6 7 8 8 8 8 9 9 10 10 11 12 14 15 16 17 17 17 17 17 17 17 17 17 19 20 21 21 20 20 20 19 18
22 20 22 26 27 26 25 23 23 23 22 19 17 16 14 11 12 14 14 11 11 13 15 15 15 14 13 12 11 11 11 11 11 11 12 12 12 10 9 9 8 6 6 7 9 11 11 10 9 6 6 7 9 10 9 8 7 8 9 9 10 11 12 13 14 16 17 17 17 17 17 17 17 17 17 18 19 20 20 20 19 19 18 17 16
22 22 23 27 29 28 26 25 24 24 23 20 18 17 14 11 11 12 11 9 11 13 14 15 15 15 14 13 12 12 12 12 12 12 12 12 12 11 10 8 7 7 7 8 10 12 12 10 8 7 8 9 10 10 8 7 7 8 9 9 10 11 13 14 15 15 16 17 17 17 16 16 16 17 18 18 19 20 20 19 18 17 16 15 14
25 24 25 28 30 29 27 26 26 25 24 20 19 17 13 10 10 9 9 10 12 14 15 15 16 15 15 14 14 14 14 13 13 13 13 13 13 12 11 9 8 9 10 11 12 13 13 10 8 9 9 10 10 8 7 7 8 8 9 10 11 12 13 14 15 15 16 16 16 16 15 15 16 17 18 19 19 19 19 18 17 16 15 14 12
27 25 26 29 31 30 29 28 28 26 23 19 18 17 12 10 10 9 9 12 13 14 15 16 16 16 16 16 15 15 14 14 14 14 13 13 13 13 12 11 10 10 11 11 12 13 12 10 10 10 9 9 8 7 6 7 8 9 10 11 12 12 13 14 14 14 15 14 14 14 14 15 16 17 18 19 19 19 17 16 16 15 14 13 12
26 25 27 31 33 32 31 30 29 27 22 19 18 16 12 10 10 10 11 14 14 15 16 17 18 18 17 17 16 15 14 15 14 14 13 13 12 12 12 11 10 11 10 10 12 12 12 11 10 9 8 7 7 6 6 7 9 10 11 12 12 12 13 13 13 13 13 13 13 13 14 15 16 17 17 18 18 17 16 16 15 14 13 12 12
27 27 28 33 36 35 33 31 30 28 22 19 19 17 13 12 13 13 15 16 17 17 18 19 19 19 18 17 17 15 14 15 15 14 13 12 12 12 12 10 10 11 10 10 11 11 12 11 10 8 7 6 6 6 7 8 9 11 11 11 11 12 12 12 12 12 13 13 13 13 14 15 17 17 16 17 17 16 16 15 15 13 11 11 12
29 29 30 34 36 35 35 32 31 28 22 20 20 17 14 15 16 16 17 18 18 18 17 17 18 18 18 18 17 16 15 15 14 13 13 12 12 12 12 11 11 12 11 10 11 12 11 10 9 7 7 6 7 7 8 9 9 10 11 11 11 11 11 11 11 12 12 13 13 14 14 15 16 16 16 16 16 15 15 15 14 12 11 12 13
31 30 31 32 31 32 33 33 31 27 22 21 21 17 15 16 17 17 17 17 17 15 14 15 16 17 17 17 17 16 15 15 15 14 13 12 12 13 13 12 12 13 12 11 12 12 11 10 9 8 7 7 8 8 8 9 9 10 11 11 10 10 10 10 10 11 12 13 13 14 15 15 15 16 16 15 15 15 15 15 14 13 12 13 14
32 30 30 30 30 30 32 32 30 25 23 23 21 17 16 16 16 16 16 16 16 14 13 15 16 17 18 18 17 16 15 15 15 15 15 14 14 15 15 14 14 13 12 13 13 12 12 11 10 9 7 7 8 8 9 10 10 11 11 10 9 10 10 9 10 11 12 14 14 14 15 15 15 15 15 15 14 15 15 15 15 13 13 14 16
34 32 30 29 30 30 31 31 29 25 24 23 20 17 16 16 16 16 16 16 16 16 16 17 18 18 19 19 18 17 16 16 16 17 17 17 17 17 17 15 14 13 14 14 13 13 13 12 11 9 7 7 8 9 9 10 11 11 11 10 9 9 9 9 10 10 12 14 15 15 15 15 14 14 13 13 14 14 15 15 14 12 13 15 16
37 35 30 29 30 30 30 30 28 26 25 23 21 17 16 16 16 16 16 16 16 18 20 20 20 20 19 19 18 17 16 16 17 18 19 19 19 19 18 16 15 15 15 15 14 14 13 11 10 9 7 7 8 10 11 11 12 11 10 10 9 9 8 9 10 10 11 13 14 14 14 14 14 13 12 11 12 13 14 14 13 12 13 15 16
41 35 30 30 32 31 30 28 27 26 26 24 21 18 17 17 17 17 16 16 17 19 20 20 20 20 19 18 17 17 16 16 18 19 20 19 19 20 19 17 16 16 17 16 15 14 13 11 10 9 7 7 9 11 12 12 12 11 11 10 9 9 9 9 9 10 12 13 13 13 13 13 13 13 12 10 10 11 12 13 12 12 13 15 16
42 35 31 32 32 31 29 27 27 28 27 25 22 19 18 17 17 17 16 16 18 20 20 19 19 19 18 17 17 17 17 17 18 20 20 19 20 21 20 18 18 18 18 17 15 14 12 11 10 9 8 9 11 13 14 13 12 11 11 10 10 10 9 9 9 10 12 12 12 12 12 13 13 14 12 10 10 11 11 12 12 13 14 15 16
Wind_Direction
161 153 152 155 151 147 143 140 135 126 116 112 102 97 91 88 87 87 90 91 94 91 90 89 91 93 94 94 92 91 87 86 83 84 85 86 89 93 100 103 106 109 116 121 121 121 120 119 119 122 122 123 124 118 114 113 113 112 112 109 105 103 101 98 96 91 87 81 72 64 62 67 66 62 58 53 49 43 36 29 24 18 13 8 5
157 156 155 157 155 151 149 146 144 135 123 117 106 99 92 88 86 85 85 86 90 90 90 87 87 88 90 93 92 91 89 87 84 83 85 86 87 89 93 97 102 106 111 116 119 122 122 123 125 128 128 128 127 123 121 119 118 117 116 112 109 106 105 103 99 94 87 80 71 61 53 59 63 60 54 48 41 33 27 20 13 8 2 359 356
164 164 159 160 160 155 154 152 151 145 133 126 113 103 93 87 85 85 83 82 84 86 88 85 84 84 87 90 91 92 90 88 86 84 83 86 88 89 91 94 98 102 106 111 116 120 122 125 127 131 131 131 130 128 126 124 124 123 120 115 112 110 108 104 99 94 88 80 70 61 50 49 55 53 46 38 30 22 16 10 3 358 354 351 349
173 176 171 163 164 162 160 157 157 154 145 135 123 109 94 87 84 83 82 80 80 80 83 85 84 83 85 87 89 91 91 89 87 86 84 85 88 91 91 93 97 100 104 109 114 117 120 123 126 130 132 133 132 131 130 129 128 125 121 117 114 111 107 103 98 93 89 79 65 59 48 39 46 45 38 29 21 14 6 360 354 351 348 347 347
175 179 184 173 169 169 167 164 161 163 159 147 135 119 100 88 83 82 82 80 78 77 78 82 84 84 84 85 88 89 91 91 89 88 86 85 87 91 93 95 97 100 103 107 112 114 117 121 124 129 132 134 133 132 132 131 130 127 123 120 117 114 110 104 96 88 85 76 61 52 43 31 37 38 31 22 13 4 356 351 349 347 347 347 347
175 178 187 185 178 177 176 175 169 170 171 162 149 130 113 93 84 81 80 81 78 79 76 76 80 84 85 84 86 88 90 91 91 90 89 88 86 89 92 95 97 99 102 105 109 112 116 118 122 127 131 133 133 132 133 133 131 129 126 124 122 119 114 107 97 86 80 72 62 51 41 26 28 32 22 13 3 355 350 348 348 347 347 347 346
176 179 187 192 190 189 186 185 181 180 181 177 166 145 129 104 89 81 78 80 77 79 75 72 75 82 86 87 87 87 90 91 93 92 92 90 86 86 88 92 94 98 100 103 107 111 115 117 122 126 130 132 133 134 135 135 133 130 128 127 126 122 118 114 108 101 94 70 60 53 40 20 22 25 12 3 356 351 348 348 347 346 345 344 342
177 178 185 194 198 200 198 196 194 194 196 193 185 175 158 125 94 80 74 74 75 78 74 71 70 78 86 90 91 89 90 91 94 93 94 94 91 88 86 89 92 97 99 102 107 111 116 119 124 127 130 131 133 135 136 135 132 130 129 129 127 124 124 122 118 115 113 99 57 38 40 17 16 16 5 356 351 347 347 346 345 343 342 340 338
177 180 186 194 202 207 209 207 206 209 210 210 208 210 204 187 120 65 59 64 69 74 69 68 67 72 83 91 95 94 92 91 94 95 96 96 96 95 90 90 90 95 99 102 106 110 117 122 127 128 131 132 135 135 135 134 131 131 131 132 130 129 126 119 124 120 113 110 101 11 32 17 12 6 359 351 346 345 343 342 341 339 339 338 337
177 183 189 193 202 210 216 217 216 220 221 222 226 232 233 233 248 330 18 46 55 64 62 63 65 68 75 90 97 98 97 92 94 96 98 99 99 101 98 95 93 95 99 104 107 111 117 123 128 130 132 134 136 136 135 134 133 135 136 137 134 136 125 110 119 109 95 84 61 360 19 21 11 359 351 344 342 343 340 339 339 339 339 339 338
176 184 193 195 204 210 219 224 225 229 230 231 233 241 246 250 259 274 312 358 32 43 42 50 61 65 68 83 96 100 101 96 95 96 99 101 101 103 103 102 99 98 100 105 109 113 118 124 130 131 133 135 137 138 138 138 139 143 144 144 144 150 128 95 68 73 58 34 15 358 25 19 3 353 344 341 342 341 338 338 340 341 342 341 340
183 188 195 197 205 211 220 228 233 239 238 238 237 243 250 255 260 264 281 300 327 352 354 8 54 65 69 74 91 99 103 101 99 99 99 102 103 103 105 106 105 103 103 106 112 116 121 126 131 133 135 137 140 142 143 144 147 152 153 154 161 156 98 49 26 47 46 26 360 359 23 8 352 347 342 341 341 339 338 341 343 344 344 344 345
195 195 198 198 206 211 221 229 236 245 245 244 243 245 250 255 258 262 267 272 282 292 311 285 256 74 77 72 86 96 103 106 105 104 102 103 105 105 106 108 110 109 108 109 114 119 124 129 133 136 137 140 143 145 148 151 157 163 165 173 182 75 43 27 10 19 35 18 353 359 8 353 345 342 341 340 339 340 341 344 346 347 349 350 351
203 202 203 199 205 211 219 229 237 246 250 250 250 251 253 255 257 259 260 260 267 271 279 266 240 228 97 80 84 96 105 111 115 111 106 107 109 110 110 111 112 114 116 116 118 123 128 132 136 138 140 143 146 149 153 160 170 178 182 200 227 33 28 22 6 1 13 4 354 1 354 345 343 340 342 341 341 344 345 348 350 352 353 355 356
214 211 211 205 204 210 216 225 235 245 253 255 255 255 256 256 257 256 256 255 257 260 261 256 240 230 199 108 89 99 109 116 125 117 111 110 112 115 116 116 115 118 121 123 126 129 134 137 140 142 145 149 152 156 161 171 185 193 201 225 297 25 25 17 1 353 354 352 355 354 346 341 340 342 344 343 345 348 350 352 353 354 356 357 358
226 221 218 212 204 211 217 222 232 245 255 259 259 258 259 257 257 254 252 252 253 254 252 250 240 232 225 204 192 113 113 124 135 126 118 113 115 120 122 122 121 122 125 130 135 138 141 144 146 148 151 156 161 166 171 184 199 205 215 240 327 16 22 12 357 350 343 345 350 343 336 335 338 343 344 345 349 352 353 354 355 356 358 359 358
228 227 225 217 211 219 221 227 234 248 258 261 263 261 261 258 256 254 250 250 250 250 246 245 241 234 229 224 234 224 133 156 164 138 128 123 122 126 129 130 130 130 132 137 143 148 151 152 153 154 157 163 170 176 181 194 210 218 230 260 345 6 4 3 350 339 333 338 340 333 329 331 338 343 344 348 353 355 356 357 358 360 0 1 359
226 230 230 224 217 229 232 238 240 251 261 264 267 264 262 260 257 254 250 249 247 246 242 242 241 235 231 230 236 238 248 232 206 169 148 145 135 135 136 136 139 140 143 147 153 158 159 160 161 162 164 171 178 185 192 203 219 229 244 275 342 358 342 341 332 320 320 329 333 326 323 328 339 343 346 351 354 357 360 2 2 2 1 0 358
222 231 232 228 220 234 244 249 250 255 263 266 268 265 261 258 255 253 250 249 246 243 240 240 240 236 232 232 234 238 246 242 228 202 184 182 163 151 145 143 148 151 155 158 162 165 167 168 170 173 175 181 187 193 201 210 223 237 255 278 325 341 324 320 314 308 315 325 326 319 318 328 340 345 350 353 355 360 4 5 4 1 359 358 356
219 231 233 228 221 233 248 253 257 259 263 269 270 268 266 260 254 252 250 248 246 242 239 238 239 237 234 235 237 238 244 252 245 221 212 215 206 186 165 157 160 164 166 169 171 172 174 177 179 183 187 191 195 202 210 217 227 242 261 276 305 311 306 308 304 305 314 319 316 312 319 331 341 348 353 355 359 2 4 4 2 358 354 353 352
218 230 233 229 225 233 245 253 257 263 267 273 275 276 274 268 257 251 249 247 244 241 238 237 239 240 238 240 241 241 245 253 253 241 235 234 230 217 195 179 177 178 178 178 180 181 183 186 189 192 196 200 204 212 219 223 231 247 266 282 296 293 295 296 296 301 307 311 310 313 324 333 344 351 353 357 1 2 2 360 357 352 347 347 347
222 229 232 230 231 234 243 253 257 267 273 278 281 285 285 278 262 251 247 243 241 239 237 236 239 241 242 244 245 245 245 246 251 254 252 246 241 234 220 204 194 191 188 188 188 190 193 194 197 200 205 209 215 222 227 231 238 257 276 291 292 285 286 286 289 297 301 305 307 314 325 335 345 350 353 357 358 358 357 353 349 346 342 341 341
231 230 231 231 237 238 242 249 255 267 276 284 292 294 292 284 266 253 245 239 238 237 236 235 238 241 242 244 245 246 246 245 248 253 257 254 248 244 237 224 208 200 197 197 196 198 200 201 202 206 212 218 225 231 236 244 253 267 279 286 284 278 277 278 282 290 297 302 306 314 326 337 344 348 353 353 351 350 349 346 343 341 338 336 336
237 234 233 232 236 239 243 246 253 266 280 293 302 303 295 285 270 254 243 237 234 235 235 235 237 238 239 241 243 246 247 246 248 252 257 255 251 246 238 226 215 206 203 203 203 204 205 207 210 214 221 229 236 242 249 256 260 267 270 275 275 270 271 276 278 286 297 302 308 320 329 337 341 345 349 346 343 342 339 338 338 337 334 333 333
235 234 234 231 231 236 240 244 250 261 282 301 303 301 296 285 273 255 243 237 234 234 235 236 237 238 239 242 243 245 248 247 248 251 252 249 245 241 232 220 213 208 206 209 211 214 216 220 225 229 235 242 248 249 249 253 258 257 251 260 269 270 273 275 277 287 300 305 314 325 330 335 338 342 343 338 336 334 332 332 333 333 332 330 330
234 233 233 230 230 232 235 240 246 256 278 299 300 294 295 292 277 259 246 240 237 236 235 237 239 239 240 242 245 246 248 249 245 244 242 239 236 234 228 215 210 209 208 211 214 217 220 225 231 234 236 243 251 251 246 249 255 255 251 256 267 274 276 274 281 292 302 311 321 326 327 331 335 337 335 331 330 329 327 328 330 331 329 328 328
233 236 236 233 232 230 231 235 242 254 273 293 294 290 296 299 284 265 254 248 243 239 236 236 238 239 240 243 247 247 249 250 245 240 236 231 228 228 225 216 213 213 212 211 214 218 215 215 223 229 232 234 243 249 246 246 253 262 263 262 267 275 274 273 284 297 308 318 321 321 321 325 330 329 327 326 325 325 325 326 328 328 326 325 326
233 237 238 236 234 231 229 233 242 255 267 282 288 291 302 302 287 273 266 262 253 243 237 236 237 237 239 243 247 249 248 246 243 242 240 233 223 219 218 218 219 216 216 213 213 219 217 216 220 226 230 231 236 242 243 246 256 262 260 260 264 274 275 274 283 299 311 318 315 312 314 319 322 322 321 321 322 324 325 325 326 326 324 323 325
236 238 240 237 235 232 229 234 245 256 261 271 284 294 303 299 289 282 278 277 265 250 239 236 236 233 235 239 244 247 244 240 241 245 246 237 223 217 218 219 220 217 219 219 212 214 220 221 221 226 229 227 231 238 240 243 250 254 254 260 268 273 276 277 287 297 303 308 306 305 308 311 314 317 318 319 322 324 325 325 324 324 323 323 324
239 239 240 237 236 233 231 237 247 257 259 263 280 295 300 299 294 288 287 286 273 255 241 237 235 230 231 236 240 241 241 238 238 245 248 238 229 223 222 220 217 218 225 225 214 215 222 222 224 232 234 230 232 240 244 241 241 247 252 261 267 268 275 283 287 288 293 299 301 302 303 306 310 314 317 319 322 324 324 323 322 322 323 323 323
240 239 239 238 237 233 233 240 249 257 258 260 276 292 298 301 297 291 290 290 277 258 246 242 236 230 231 234 235 235 237 236 230 235 242 240 237 229 225 226 223 225 235 231 218 220 222 220 224 232 235 237 238 241 246 244 239 247 251 258 270 279 285 287 284 285 291 297 300 301 302 306 309 312 317 320 321 322 322 321 320 321 322 323 323
239 238 239 238 237 235 235 241 250 257 260 262 272 287 297 301 298 294 293 291 277 259 249 246 240 232 234 235 233 231 232 232 226 226 236 237 238 237 232 233 234 234 240 236 225 226 228 225 225 228 232 238 241 240 243 247 244 252 261 268 280 288 287 281 284 291 296 300 303 304 304 307 309 313 316 318 319 320 320 320 320 321 322 322 322
239 238 239 238 239 239 237 244 253 260 265 266 270 281 294 299 296 294 294 289 276 261 250 247 243 236 237 236 233 232 232 231 227 227 234 234 238 243 239 237 241 242 243 240 230 229 233 232 230 232 238 242 247 251 255 260 255 252 260 270 282 289 290 293 297 300 303 306 306 306 306 307 310 313 315 317 319 319 319 319 320 322 322 322 322
234 243 247 243 242 241 240 247 257 264 270 270 270 277 288 294 294 294 292 283 274 266 253 249 246 241 240 237 233 235 235 233 226 225 231 233 237 241 238 237 243 247 248 246 242 238 231 228 231 236 244 252 258 268 276 271 263 257 259 269 283 290 295 299 301 303 306 307 307 306 306 307 310 313 314 317 317 317 317 318 320 322 321 321 323
235 261 259 250 245 244 245 248 256 263 270 273 269 272 282 287 291 296 290 276 275 273 257 251 249 244 242 240 238 238 237 236 227 224 230 235 235 227 231 242 249 249 247 251 258 250 232 227 231 236 243 247 250 263 271 264 261 264 265 268 274 281 288 294 299 304 306 305 305 305 306 308 310 313 314 315 316 316 318 320 321 321 321 323 327
254 276 261 252 250 248 250 250 254 261 269 272 266 268 275 280 289 296 287 276 282 281 259 251 249 244 244 245 244 241 240 238 229 225 230 235 232 224 232 249 252 246 243 251 259 245 231 230 231 236 244 246 244 254 257 253 256 263 267 269 273 278 285 294 301 303 304 305 306 307 308 310 311 313 315 316 317 318 321 321 320 320 323 327 329
262 274 257 252 253 253 253 252 254 259 266 268 262 265 270 275 289 292 285 281 287 281 259 250 249 244 244 247 244 241 241 238 230 225 230 235 230 224 231 242 245 245 248 249 244 235 230 231 233 233 233 234 240 248 248 246 251 261 269 274 279 286 293 299 302 302 305 307 309 310 312 313 313 314 315 316 318 320 320 319 319 323 327 329 329
257 262 253 252 254 255 255 253 255 258 262 264 259 261 266 275 290 289 285 286 285 273 258 250 247 243 241 242 238 239 240 239 235 229 233 236 229 224 227 235 242 250 252 241 231 236 235 236 238 229 219 222 226 232 237 241 250 263 273 282 289 297 302 303 304 305 307 309 311 312 313 313 314 314 315 316 318 318 317 318 322 326 328 327 327
247 255 256 254 254 255 256 256 256 257 260 260 257 258 264 277 290 288 285 283 278 270 260 250 244 242 240 236 235 236 236 236 237 235 237 238 231 230 236 241 250 256 247 229 225 234 237 235 232 221 210 213 216 223 233 246 258 268 278 289 297 301 304 305 306 306 307 308 308 309 310 311 312 312 315 316 316 316 316 319 323 325 325 324 323
244 260 261 254 254 255 256 258 257 257 259 257 256 259 265 279 289 287 284 278 274 269 260 248 242 241 239 237 236 237 237 235 233 232 235 234 230 234 243 246 254 254 237 224 222 229 235 229 214 203 198 204 212 221 235 253 265 274 283 292 297 299 303 304 304 304 304 304 304 305 307 308 310 311 313 315 315 316 317 320 322 323 322 321 323
248 261 262 254 253 255 256 257 257 256 256 255 256 259 263 274 283 281 275 271 269 266 259 249 244 243 242 241 242 242 242 240 233 229 227 224 224 229 234 234 240 242 232 225 223 225 231 223 201 194 194 203 216 224 239 257 270 283 291 294 297 300 302 301 301 301 301 300 301 302 304 306 308 310 312 314 315 315 317 319 321 322 320 320 329
250 260 266 258 252 254 256 255 256 254 252 251 251 254 256 264 273 267 262 263 262 260 255 249 245 243 244 245 246 246 246 245 238 231 225 219 218 221 223 223 229 234 229 225 225 220 217 210 199 194 197 209 224 236 253 271 284 293 295 296 299 301 300 299 300 300 300 300 299 299 301 304 307 310 312 313 313 314 315 319 321 320 320 325 333
251 263 267 259 252 251 253 254 255 252 247 245 245 246 246 253 259 252 252 256 256 254 249 245 243 242 243 243 243 245 247 247 242 236 230 223 218 218 219 222 230 234 227 222 224 212 199 197 198 197 203 218 234 253 271 285 292 293 294 297 299 300 299 300 300 301 302 300 298 299 301 305 307 308 310 310 311 313 317 321 321 319 321 329 331
253 264 265 258 253 249 251 255 256 252 243 238 239 237 238 248 249 242 245 250 249 249 246 244 243 241 242 242 241 244 249 249 243 240 237 230 225 219 217 224 234 238 231 219 220 211 194 191 196 201 212 230 247 265 279 287 290 290 294 298 299 300 301 302 302 302 301 298 298 300 303 305 305 306 307 308 311 314 318 321 318 316 322 328 324
256 266 266 261 256 250 249 255 258 251 239 233 233 233 240 250 249 246 248 251 251 251 252 251 247 244 244 243 241 245 250 250 246 243 239 232 225 217 217 224 232 237 233 218 215 213 202 196 199 209 221 239 259 272 281 285 287 291 297 300 300 302 304 304 304 301 298 297 299 301 302 303 303 305 308 309 312 315 317 319 317 318 326 325 318
260 265 264 260 257 251 247 253 257 247 233 228 228 232 242 251 253 253 254 258 260 261 262 259 252 248 246 243 241 245 249 251 249 242 235 229 219 214 218 225 231 234 232 219 210 211 210 204 204 216 227 242 263 277 286 289 292 297 299 301 303 305 307 305 302 298 295 296 298 299 301 302 303 306 309 311 314 315 316 318 321 327 328 318 311
259 260 259 256 255 252 247 252 256 243 227 224 226 232 242 251 254 253 254 257 258 257 254 250 246 244 242 240 240 242 245 249 249 239 231 227 219 215 218 225 230 230 227 221 210 208 211 210 211 219 230 247 268 284 293 295 297 300 299 301 305 307 305 301 296 293 295 298 299 300 301 303 306 306 308 313 315 315 316 318 323 329 321 309 308
253 254 256 253 253 254 249 253 254 237 221 221 225 232 240 249 252 249 251 254 252 248 243 240 238 237 238 239 239 240 240 242 244 238 232 229 223 219 220 224 228 227 225 221 212 209 210 213 219 226 237 255 277 293 297 297 297 297 299 303 306 303 298 292 289 291 294 297 298 298 299 302 304 305 309 315 316 316 316 316 320 321 309 303 309
249 250 254 252 252 254 250 251 248 228 217 221 224 228 237 244 247 247 248 249 247 245 243 239 237 237 239 241 240 240 239 235 238 238 234 231 228 223 222 224 226 224 222 218 212 210 211 217 227 237 250 270 289 297 296 294 295 298 302 305 302 295 288 285 287 291 292 293 293 293 293 296 301 305 313 319 319 317 312 310 312 308 302 306 315
246 247 251 250 250 250 248 248 240 221 216 221 223 226 235 242 244 245 246 246 247 248 248 246 243 242 242 242 241 240 239 236 235 236 235 233 230 227 224 225 228 223 216 213 210 210 215 224 237 248 265 285 293 294 291 290 294 301 303 301 296 290 286 285 288 289 289 290 291 292 293 295 299 305 314 323 319 313 309 306 305 304 306 314 322
242 242 244 245 246 246 245 242 230 217 215 220 223 228 236 242 243 244 247 248 250 252 254 253 250 247 245 243 242 241 242 241 237 234 233 231 230 229 224 224 230 224 211 208 207 211 221 233 244 256 274 289 293 291 289 290 296 300 299 295 290 287 285 287 287 286 287 289 291 293 296 299 303 308 318 327 321 315 314 308 305 308 314 322 329
Height
3187 3187 3188 3189 3189 3190 3191 3192 3192 3192 3192 3192 3193 3192 3192 3191 3191 3190 3190 3189 3189 3188 3188 3187 3187 3187 3186 3186 3185 3185 3184 3184 3183 3182 3182 3182 3182 3181 3180 3180 3180 3180 3180 3180 3179 3179 3179 3179 3180 3180 3180 3180 3180 3180 3180 3180 3180 3180 3181 3181 3181 3181 3181 3181 3181 3181 3181 3181 3181 3181 3181 3180 3180 3179 3179 3178 3178 3177 3177 3176 3175 3174 3173 3173 3172
3187 3187 3188 3189 3189 3190 3191 3191 3192 3192 3192 3193 3193 3193 3193 3192 3191 3191 3191 3190 3190 3189 3189 3188 3188 3187 3187 3187 3186 3186 3185 3184 3184 3183 3183 3183 3182 3182 3181 3181 3181 3181 3181 3180 3180 3180 3180 3180 3180 3180 3180 3180 3180 3181 3181 3181 3181 3181 3181 3182 3182 3182 3182 3182 3182 3182 3182 3182 3182 3181 3181 3181 3180 3180 3179 3179 3178 3178 3177 3176 3175 3174 3173 3173 3172
3188 3188 3188 3189 3189 3190 3191 3191 3192 3192 3193 3193 3193 3193 3193 3193 3192 3192 3191 3191 3191 3190 3189 3189 3188 3188 3188 3187 3187 3186 3185 3185 3184 3184 3184 3184 3183 3182 3182 3181 3181 3181 3181 3181 3181 3181 3181 3180 3180 3180 3181 3181 3181 3181 3181 3182 3182 3182 3182 3182 3183 3183 3183 3182 3182 3182 3182 3182 3182 3182 3182 3181 3180 3180 3179 3179 3178 3177 3177 3176 3175 3174 3174 3173 3172
3187 3188 3188 3189 3189 3190 3191 3191 3192 3192 3193 3193 3193 3194 3193 3193 3193 3193 3192 3192 3191 3191 3190 3190 3189 3189 3188 3188 3187 3187 3186 3186 3185 3185 3185 3185 3184 3183 3182 3182 3182 3181 3181 3181 3181 3181 3181 3181 3181 3181 3181 3181 3181 3181 3182 3182 3182 3183 3183 3183 3183 3183 3183 3183 3183 3183 3183 3183 3183 3182 3182 3182 3181 3180 3179 3179 3178 3177 3176 3176 3175 3175 3174 3173 3172
3187 3188 3189 3189 3189 3190 3190 3191 3191 3192 3193 3193 3193 3194 3194 3193 3193 3193 3193 3193 3192 3192 3191 3190 3190 3190 3189 3189 3188 3188 3187 3186 3186 3185 3185 3186 3185 3184 3183 3182 3182 3182 3182 3182 3182 3182 3182 3182 3182 3182 3182 3182 3182 3182 3182 3183 3183 3183 3183 3184 3184 3184 3184 3184 3184 3184 3184 3183 3183 3183 3183 3182 3181 3180 3179 3179 3178 3177 3177 3176 3175 3175 3174 3173 3172
3187 3188 3188 3189 3189 3190 3190 3191 3191 3192 3193 3193 3194 3194 3194 3194 3194 3194 3193 3193 3193 3192 3192 3191 3191 3190 3190 3189 3189 3188 3188 3187 3187 3186 3186 3187 3186 3185 3184 3183 3183 3183 3182 3183 3182 3182 3183 3183 3183 3183 3183 3183 3183 3183 3183 3183 3184 3184 3184 3184 3184 3184 3184 3184 3184 3184 3184 3184 3184 3183 3183 3183 3182 3180 3180 3179 3179 3178 3177 3176 3175 3174 3173 3172 3171
3187 3187 3188 3189 3189 3190 3190 3191 3191 3192 3192 3193 3193 3194 3194 3194 3194 3194 3194 3194 3193 3193 3192 3192 3191 3191 3190 3190 3190 3189 3189 3188 3188 3187 3187 3187 3187 3187 3185 3185 3184 3184 3183 3183 3183 3183 3183 3183 3184 3184 3184 3184 3184 3184 3184 3184 3184 3185 3185 3185 3184 3184 3184 3184 3184 3185 3185 3184 3184 3184 3184 3183 3182 3181 3180 3180 3179 3178 3177 3176 3175 3174 3173 3172 3171
3186 3187 3187 3188 3189 3189 3190 3191 3191 3192 3192 3193 3193 3194 3194 3194 3194 3194 3194 3194 3194 3193 3193 3193 3192 3191 3191 3190 3190 3190 3189 3189 3188 3188 3188 3188 3188 3188 3187 3186 3185 3185 3184 3184 3184 3183 3184 3184 3184 3185 3185 3185 3185 3185 3185 3185 3185 3185 3185 3185 3185 3185 3185 3184 3185 3185 3185 3185 3185 3185 3184 3183 3182 3181 3181 3180 3179 3178 3178 3177 3176 3175 3174 3173 3171
3186 3186 3187 3187 3188 3189 3189 3190 3191 3191 3192 3192 3193 3194 3194 3194 3194 3194 3194 3194 3194 3194 3193 3193 3193 3192 3191 3191 3191 3190 3190 3189 3189 3189 3188 3188 3188 3188 3188 3187 3186 3186 3185 3185 3185 3184 3184 3185 3185 3185 3185 3186 3186 3186 3186 3186 3186 3186 3186 3186 3186 3185 3185 3185 3185 3186 3186 3185 3185 3185 3184 3183 3182 3182 3181 3181 3180 3179 3178 3177 3176 3175 3174 3173 3171
3185 3186 3186 3187 3187 3188 3189 3190 3190 3191 3191 3192 3193 3193 3194 3194 3194 3194 3194 3194 3194 3194 3194 3193 3193 3193 3192 3191 3191 3191 3190 3190 3190 3189 3189 3188 3188 3188 3188 3187 3187 3186 3186 3186 3185 3185 3185 3186 3186 3186 3186 3186 3186 3187 3187 3187 3187 3187 3186 3186 3186 3186 3186 3186 3186 3186 3186 3186 3185 3185 3184 3183 3183 3182 3182 3181 3180 3179 3178 3177 3176 3175 3174 3172 3171
3185 3185 3186 3186 3187 3187 3188 3189 3190 3190 3191 3192 3192 3193 3193 3194 3194 3194 3194 3194 3194 3194 3194 3194 3193 3193 3193 3192 3191 3191 3191 3190 3190 3189 3189 3189 3189 3188 3188 3188 3187 3187 3187 3186 3186 3186 3186 3186 3187 3187 3187 3187 3187 3187 3187 3187 3187 3187 3187 3187 3187 3186 3186 3186 3186 3187 3187 3186 3186 3185 3184 3183 3183 3183 3182 3181 3180 3179 3178 3177 3176 3174 3173 3171 3170
3185 3185 3185 3186 3186 3187 3188 3188 3189 3189 3190 3191 3192 3192 3193 3193 3194 3194 3194 3194 3194 3194 3194 3193 3193 3193 3193 3192 3192 3191 3191 3191 3190 3190 3189 3189 3189 3189 3188 3188 3187 3187 3187 3187 3187 3186 3187 3187 3187 3187 3187 3188 3188 3188 3188 3188 3187 3187 3187 3187 3187 3187 3187 3187 3187 3187 3187 3186 3186 3185 3184 3184 3183 3182 3182 3181 3180 3179 3178 3176 3175 3174 3172 3171 3169
3184 3185 3185 3185 3186 3186 3187 3188 3188 3188 3189 3190 3191 3191 3192 3192 3193 3193 3193 3193 3193 3193 3193 3193 3193 3193 3193 3192 3192 3191 3191 3191 3190 3190 3189 3189 3189 3189 3189 3188 3187 3187 3187 3188 3187 3187 3187 3187 3188 3188 3188 3188 3188 3188 3188 3188 3187 3187 3187 3187 3187 3187 3187 3187 3187 3187 3187 3186 3186 3185 3184 3184 3183 3182 3181 3180 3179 3178 3177 3175 3174 3173 3171 3170 3169
3183 3184 3184 3185 3185 3186 3186 3187 3188 3188 3188 3189 3190 3190 3191 3192 3192 3193 3193 3192 3192 3192 3193 3193 3193 3193 3192 3192 3192 3191 3191 3191 3190 3190 3189 3189 3189 3189 3189 3188 3188 3187 3187 3188 3188 3188 3187 3187 3188 3188 3189 3189 3189 3188 3188 3188 3187 3187 3187 3187 3187 3187 3188 3187 3187 3186 3186 3186 3186 3185 3184 3183 3182 3182 3181 3180 3179 3178 3176 3175 3174 3172 3171 3170 3169
3182 3183 3184 3184 3185 3185 3186 3186 3187 3187 3188 3188 3189 3190 3190 3191 3191 3192 3192 3191 3191 3192 3192 3192 3192 3192 3192 3192 3191 3191 3190 3190 3190 3190 3189 3189 3189 3189 3189 3188 3188 3188 3188 3188 3188 3188 3188 3188 3188 3188 3189 3189 3189 3189 3188 3188 3187 3187 3187 3186 3187 3187 3187 3187 3186 3186 3186 3185 3185 3184 3183 3183 3182 3181 3180 3179 3178 3177 3176 3175 3174 3172 3171 3170 3169
3181 3182 3183 3184 3184 3185 3185 3186 3186 3186 3187 3188 3188 3189 3189 3190 3190 3190 3190 3190 3191 3191 3191 3191 3191 3192 3191 3191 3191 3190 3190 3190 3190 3189 3189 3189 3189 3189 3189 3188 3188 3188 3188 3188 3188 3188 3188 3188 3188 3188 3189 3189 3189 3189 3188 3187 3186 3187 3187 3186 3187 3187 3187 3187 3186 3186 3185 3185 3184 3183 3183 3182 3181 3180 3179 3179 3178 3177 3176 3175 3174 3172 3171 3170 3169
3181 3181 3182 3183 3184 3184 3185 3185 3185 3185 3186 3187 3187 3188 3188 3189 3189 3189 3189 3189 3190 3190 3190 3190 3191 3191 3191 3191 3190 3190 3190 3189 3189 3189 3189 3189 3189 3188 3188 3188 3188 3188 3188 3188 3188 3188 3188 3188 3188 3188 3188 3189 3189 3188 3188 3187 3186 3187 3186 3186 3187 3187 3187 3186 3186 3185 3185 3184 3184 3183 3182 3181 3181 3180 3179 3178 3178 3177 3176 3175 3173 3172 3171 3170 3168
3180 3180 3181 3182 3183 3184 3184 3184 3184 3185 3185 3186 3186 3187 3187 3187 3188 3188 3188 3189 3189 3189 3189 3190 3190 3190 3190 3190 3190 3189 3189 3189 3189 3188 3188 3188 3188 3188 3188 3188 3188 3187 3187 3188 3188 3188 3188 3188 3188 3188 3188 3188 3188 3188 3187 3187 3187 3186 3186 3186 3187 3187 3186 3186 3185 3185 3184 3184 3183 3182 3182 3181 3181 3180 3179 3178 3178 3177 3175 3174 3173 3172 3171 3170 3169
3179 3179 3180 3181 3182 3183 3183 3183 3183 3184 3184 3185 3185 3186 3186 3186 3187 3187 3187 3188 3188 3188 3188 3189 3189 3189 3189 3189 3189 3189 3189 3188 3188 3187 3187 3187 3188 3187 3187 3187 3187 3187 3187 3187 3187 3187 3187 3187 3187 3187 3187 3187 3187 3187 3187 3187 3187 3186 3186 3186 3187 3187 3186 3185 3185 3184 3184 3183 3183 3182 3182 3181 3181 3180 3179 3178 3177 3176 3175 3174 3173 3172 3171 3170 3169
3178 3178 3179 3180 3181 3182 3182 3182 3183 3183 3183 3184 3184 3184 3185 3185 3185 3186 3186 3187 3187 3187 3187 3188 3188 3188 3188 3188 3188 3188 3188 3188 3187 3187 3187 3187 3187 3187 3187 3187 3186 3186 3186 3186 3186 3186 3186 3186 3186 3186 3186 3186 3186 3186 3187 3187 3187 3186 3186 3186 3187 3187 3186 3185 3184 3184 3183 3183 3183 3183 3182 3181 3180 3179 3179 3178 3177 3176 3175 3174 3173 3172 3171 3170 3169
3178 3178 3178 3179 3181 3181 3181 3182 3182 3182 3182 3183 3183 3183 3184 3184 3184 3185 3185 3186 3186 3186 3186 3187 3187 3187 3188 3188 3188 3187 3187 3187 3187 3186 3186 3186 3186 3186 3186 3186 3186 3185 3185 3185 3185 3185 3185 3185 3185 3186 3185 3185 3185 3186 3186 3187 3187 3186 3186 3186 3187 3186 3185 3185 3184 3184 3183 3183 3183 3182 3182 3181 3180 3179 3179 3178 3177 3176 3175 3174 3173 3172 3171 3170 3169
3177 3177 3177 3178 3179 3180 3180 3181 3181 3181 3181 3182 3182 3182 3182 3183 3183 3183 3184 3185 3185 3185 3185 3186 3186 3187 3187 3187 3187 3187 3187 3187 3186 3186 3186 3186 3186 3186 3185 3185 3185 3185 3185 3185 3185 3184 3184 3184 3185 3185 3185 3185 3185 3185 3186 3187 3186 3186 3186 3186 3186 3185 3185 3185 3184 3184 3183 3183 3183 3182 3181 3180 3180 3179 3178 3177 3176 3176 3175 3174 3173 3172 3171 3170 3169
3176 3176 3176 3177 3178 3179 3179 3179 3180 3180 3180 3181 3181 3181 3181 3182 3182 3182 3183 3184 3184 3184 3184 3185 3185 3186 3186 3186 3186 3186 3186 3186 3186 3185 3185 3185 3185 3185 3185 3184 3184 3184 3184 3184 3184 3184 3184 3184 3185 3185 3185 3184 3184 3185 3186 3186 3186 3186 3186 3186 3186 3185 3185 3184 3184 3184 3183 3183 3182 3182 3181 3180 3179 3179 3178 3177 3176 3175 3174 3174 3173 3172 3171 3170 3168
3175 3175 3175 3176 3177 3177 3178 3178 3179 3179 3179 3180 3180 3180 3180 3181 3181 3181 3182 3182 3182 3183 3183 3184 3185 3185 3185 3185 3185 3185 3185 3185 3185 3185 3185 3185 3184 3184 3184 3183 3183 3183 3183 3183 3183 3183 3183 3184 3184 3184 3184 3184 3184 3185 3186 3186 3185 3185 3186 3186 3185 3184 3184 3184 3184 3183 3183 3183 3182 3182 3181 3180 3179 3178 3177 3177 3176 3175 3174 3174 3173 3172 3171 3169 3168
3174 3173 3173 3175 3176 3176 3177 3177 3177 3178 3178 3178 3179 3179 3180 3180 3180 3180 3180 3181 3181 3181 3182 3183 3184 3184 3184 3183 3184 3184 3184 3184 3184 3184 3184 3184 3183 3183 3183 3183 3182 3183 3183 3183 3183 3183 3183 3183 3184 3184 3184 3184 3184 3185 3185 3185 3184 3185 3185 3185 3184 3184 3183 3183 3183 3183 3183 3183 3182 3181 3180 3179 3179 3178 3177 3176 3176 3175 3174 3173 3173 3171 3170 3168 3167
3172 3171 3172 3173 3174 3175 3175 3176 3176 3177 3177 3178 3178 3179 3179 3179 3178 3179 3179 3179 3179 3180 3181 3182 3183 3183 3182 3182 3182 3183 3183 3183 3183 3182 3183 3183 3182 3182 3182 3182 3182 3182 3182 3182 3182 3182 3183 3183 3183 3183 3184 3183 3183 3184 3184 3184 3183 3184 3184 3184 3184 3184 3183 3183 3183 3183 3183 3182 3181 3181 3180 3179 3178 3177 3177 3176 3175 3175 3173 3173 3172 3171 3169 3168 3166
3171 3171 3171 3172 3173 3174 3174 3174 3175 3176 3176 3177 3177 3178 3178 3177 3177 3177 3178 3178 3178 3179 3180 3181 3181 3181 3181 3181 3181 3182 3182 3182 3181 3181 3182 3182 3182 3182 3182 3181 3182 3182 3182 3182 3182 3182 3182 3182 3182 3182 3183 3183 3182 3183 3183 3183 3183 3183 3183 3183 3184 3183 3183 3183 3183 3183 3182 3182 3181 3180 3179 3178 3178 3177 3177 3176 3175 3174 3173 3172 3171 3170 3168 3166 3165
3169 3169 3169 3170 3171 3172 3173 3173 3174 3174 3175 3176 3176 3176 3176 3176 3176 3176 3176 3177 3177 3178 3179 3180 3180 3180 3180 3180 3180 3181 3181 3181 3180 3181 3181 3181 3181 3181 3181 3181 3181 3181 3181 3181 3181 3181 3181 3181 3181 3181 3182 3182 3182 3182 3182 3182 3182 3182 3183 3183 3183 3183 3183 3183 3183 3182 3182 3181 3180 3179 3178 3178 3177 3177 3176 3175 3174 3173 3172 3171 3170 3169 3167 3165 3163
3167 3168 3168 3169 3170 3171 3171 3172 3172 3173 3174 3175 3175 3175 3175 3175 3174 3175 3175 3176 3176 3177 3178 3178 3178 3178 3179 3180 3179 3180 3180 3180 3180 3180 3180 3180 3180 3181 3181 3181 3180 3180 3180 3180 3180 3180 3180 3180 3180 3180 3181 3181 3181 3181 3181 3182 3182 3183 3183 3183 3183 3183 3182 3182 3182 3182 3181 3180 3179 3178 3178 3178 3177 3176 3175 3174 3174 3172 3171 3170 3169 3167 3166 3163 3162
3165 3166 3167 3167 3168 3169 3170 3170 3171 3172 3173 3174 3174 3174 3174 3174 3173 3173 3174 3174 3175 3176 3177 3177 3177 3178 3179 3178 3179 3179 3179 3179 3179 3179 3179 3179 3180 3180 3180 3180 3180 3180 3180 3180 3180 3180 3180 3179 3179 3179 3179 3180 3180 3180 3180 3181 3182 3183 3183 3182 3182 3182 3182 3181 3181 3181 3181 3180 3179 3178 3177 3177 3176 3176 3175 3173 3173 3171 3170 3169 3167 3166 3164 3163 3161
3163 3164 3165 3165 3166 3167 3168 3168 3169 3170 3171 3172 3173 3173 3173 3172 3172 3172 3172 3173 3174 3174 3175 3175 3176 3177 3178 3177 3178 3178 3178 3177 3178 3178 3178 3178 3179 3179 3179 3179 3179 3179 3179 3179 3179 3179 3179 3178 3178 3178 3178 3178 3179 3179 3179 3180 3181 3182 3181 3181 3181 3181 3181 3181 3181 3181 3180 3179 3179 3178 3177 3176 3175 3175 3174 3172 3171 3170 3169 3168 3166 3165 3163 3161 3159
3161 3162 3163 3163 3164 3165 3166 3167 3167 3168 3170 3171 3171 3171 3171 3171 3171 3171 3171 3172 3172 3173 3174 3174 3175 3177 3177 3176 3177 3177 3176 3176 3177 3178 3178 3178 3178 3178 3178 3178 3178 3178 3178 3179 3179 3178 3178 3178 3177 3177 3177 3177 3178 3179 3179 3180 3181 3180 3180 3180 3179 3180 3180 3181 3180 3180 3179 3179 3178 3177 3176 3175 3174 3174 3173 3171 3170 3169 3168 3166 3165 3163 3162 3160 3158
3159 3160 3161 3161 3162 3163 3164 3165 3166 3167 3168 3169 3169 3170 3170 3170 3170 3170 3170 3170 3171 3172 3174 3174 3175 3176 3175 3175 3175 3176 3175 3175 3176 3177 3177 3177 3177 3177 3177 3177 3177 3177 3177 3178 3178 3177 3177 3177 3176 3176 3176 3177 3178 3178 3178 3179 3179 3180 3180 3179 3179 3179 3179 3179 3179 3179 3178 3178 3178 3177 3175 3174 3173 3172 3171 3170 3169 3168 3166 3165 3164 3162 3160 3158 3157
3157 3158 3159 3159 3160 3161 3162 3163 3164 3165 3166 3167 3168 3168 3168 3168 3168 3168 3168 3168 3170 3172 3173 3172 3173 3174 3174 3174 3174 3174 3174 3175 3176 3176 3176 3176 3176 3176 3176 3176 3176 3176 3176 3177 3177 3177 3176 3176 3176 3176 3176 3177 3177 3177 3178 3178 3178 3178 3179 3179 3179 3178 3178 3178 3178 3178 3177 3177 3177 3176 3175 3173 3172 3171 3170 3169 3168 3167 3165 3164 3162 3161 3159 3157 3155
3154 3156 3157 3157 3157 3158 3160 3161 3163 3163 3164 3165 3166 3166 3166 3166 3166 3167 3167 3167 3169 3171 3171 3171 3172 3173 3173 3173 3173 3173 3173 3174 3175 3175 3175 3175 3175 3175 3175 3175 3175 3175 3175 3176 3176 3176 3175 3175 3175 3175 3176 3176 3177 3177 3177 3177 3177 3177 3178 3178 3178 3178 3178 3177 3177 3177 3176 3176 3176 3175 3174 3173 3171 3170 3169 3168 3167 3166 3164 3162 3161 3159 3158 3156 3154
3152 3153 3154 3155 3155 3156 3158 3160 3161 3161 3163 3164 3164 3164 3164 3164 3164 3165 3165 3165 3167 3170 3170 3170 3171 3172 3172 3172 3172 3172 3172 3173 3174 3174 3174 3174 3174 3174 3174 3174 3174 3175 3175 3175 3175 3175 3175 3175 3175 3175 3175 3176 3176 3176 3177 3177 3177 3177 3177 3177 3177 3177 3177 3177 3176 3176 3175 3175 3174 3174 3173 3172 3171 3169 3168 3167 3166 3164 3163 3161 3159 3158 3156 3154 3153
3151 3151 3152 3153 3153 3154 3155 3157 3158 3159 3160 3161 3162 3162 3162 3163 3163 3163 3163 3164 3166 3168 3168 3168 3169 3170 3170 3170 3170 3170 3171 3172 3173 3173 3173 3173 3173 3173 3173 3174 3174 3175 3175 3175 3175 3174 3174 3174 3174 3175 3175 3175 3176 3176 3176 3176 3176 3176 3176 3177 3176 3176 3176 3176 3175 3174 3174 3173 3173 3172 3171 3170 3169 3168 3167 3166 3164 3163 3161 3159 3158 3156 3154 3153 3152
3150 3150 3151 3152 3152 3152 3153 3155 3156 3157 3158 3159 3160 3160 3161 3161 3162 3161 3161 3162 3164 3166 3166 3167 3168 3169 3169 3169 3169 3169 3170 3171 3171 3172 3172 3172 3172 3173 3173 3173 3174 3175 3175 3174 3174 3173 3173 3173 3173 3174 3175 3175 3176 3176 3176 3175 3176 3176 3176 3176 3175 3175 3175 3174 3174 3173 3172 3171 3171 3170 3169 3169 3168 3167 3166 3165 3163 3162 3160 3159 3157 3155 3154 3152 3151
3148 3149 3149 3150 3150 3150 3151 3153 3154 3155 3156 3157 3157 3158 3159 3160 3160 3160 3159 3161 3163 3164 3165 3166 3166 3167 3167 3167 3168 3168 3169 3170 3170 3170 3170 3171 3171 3171 3171 3172 3173 3173 3173 3173 3173 3172 3172 3173 3173 3174 3175 3175 3175 3175 3175 3175 3176 3176 3176 3175 3175 3174 3174 3174 3173 3172 3171 3170 3169 3169 3168 3167 3167 3166 3165 3164 3162 3161 3159 3158 3156 3155 3153 3152 3150
3146 3146 3147 3147 3147 3148 3149 3150 3151 3152 3153 3154 3155 3156 3157 3158 3158 3158 3158 3160 3162 3163 3164 3164 3165 3165 3165 3166 3167 3167 3168 3169 3169 3169 3170 3170 3170 3170 3170 3171 3172 3173 3172 3173 3173 3172 3172 3172 3173 3174 3174 3175 3175 3175 3175 3175 3176 3176 3175 3175 3174 3174 3173 3173 3172 3172 3171 3170 3169 3168 3167 3167 3166 3164 3163 3162 3161 3159 3158 3156 3155 3154 3152 3151 3149
3143 3144 3145 3145 3145 3146 3147 3148 3149 3150 3151 3152 3153 3154 3155 3156 3157 3157 3157 3158 3160 3162 3162 3163 3163 3163 3164 3164 3165 3166 3166 3167 3168 3169 3170 3170 3170 3170 3171 3171 3172 3172 3172 3172 3172 3172 3172 3172 3173 3174 3174 3174 3175 3175 3175 3175 3175 3175 3175 3174 3174 3173 3173 3172 3172 3171 3170 3169 3168 3167 3166 3166 3165 3163 3162 3161 3159 3158 3157 3155 3154 3153 3151 3150 3148
3141 3142 3142 3143 3143 3144 3145 3145 3146 3148 3149 3150 3151 3152 3153 3154 3155 3155 3156 3157 3158 3160 3161 3161 3161 3161 3162 3162 3163 3163 3164 3165 3166 3168 3169 3170 3170 3171 3171 3171 3172 3172 3172 3172 3171 3171 3172 3172 3173 3173 3173 3174 3174 3174 3175 3174 3174 3174 3174 3173 3173 3173 3172 3172 3171 3170 3169 3168 3167 3166 3166 3165 3163 3162 3161 3159 3158 3157 3155 3154 3153 3152 3150 3148 3146
3139 3140 3140 3140 3141 3142 3142 3143 3144 3145 3147 3148 3149 3150 3151 3152 3153 3154 3154 3155 3157 3158 3159 3159 3159 3159 3160 3160 3161 3161 3162 3163 3164 3165 3167 3168 3169 3169 3170 3170 3170 3170 3170 3170 3170 3170 3171 3172 3172 3173 3173 3173 3174 3174 3174 3173 3173 3173 3173 3172 3172 3172 3172 3171 3170 3169 3168 3167 3166 3166 3165 3164 3162 3161 3160 3158 3157 3156 3154 3153 3152 3150 3149 3147 3146
3135 3137 3138 3138 3138 3139 3140 3141 3142 3143 3145 3146 3147 3148 3149 3150 3151 3152 3152 3153 3154 3156 3156 3156 3157 3158 3158 3159 3159 3160 3160 3161 3162 3163 3164 3165 3166 3167 3167 3168 3168 3168 3168 3169 3168 3169 3170 3171 3171 3172 3172 3173 3173 3173 3173 3173 3172 3172 3172 3172 3171 3171 3170 3169 3168 3167 3167 3166 3165 3165 3164 3162 3161 3160 3159 3157 3156 3154 3153 3152 3151 3149 3148 3146 3145
3132 3134 3135 3135 3135 3137 3138 3139 3140 3141 3142 3143 3144 3145 3146 3148 3149 3149 3150 3150 3152 3153 3154 3155 3155 3156 3157 3157 3158 3158 3159 3159 3160 3161 3162 3163 3164 3164 3165 3166 3166 3166 3167 3167 3167 3168 3169 3170 3171 3171 3172 3172 3172 3172 3172 3172 3171 3171 3171 3171 3170 3170 3169 3168 3167 3166 3166 3165 3164 3164 3163 3161 3159 3158 3157 3156 3155 3153 3152 3151 3150 3148 3146 3145 3144
3129 3131 3132 3132 3133 3134 3135 3136 3137 3139 3140 3141 3142 3142 3144 3145 3147 3147 3148 3149 3150 3152 3153 3153 3154 3155 3156 3156 3157 3157 3157 3158 3159 3160 3160 3161 3162 3162 3163 3164 3165 3165 3165 3166 3166 3167 3168 3169 3170 3170 3171 3171 3171 3171 3171 3170 3170 3170 3170 3170 3169 3168 3168 3167 3166 3165 3164 3164 3163 3162 3161 3160 3158 3157 3156 3155 3154 3152 3151 3150 3148 3147 3145 3144 3143
3126 3128 3129 3130 3130 3131 3132 3133 3135 3137 3138 3138 3139 3140 3141 3143 3145 3146 3146 3147 3148 3150 3151 3152 3153 3153 3154 3154 3155 3155 3156 3157 3158 3159 3159 3159 3160 3161 3161 3162 3163 3164 3164 3165 3166 3166 3167 3168 3169 3169 3170 3170 3170 3170 3169 3169 3169 3169 3168 3168 3168 3167 3166 3166 3165 3164 3163 3162 3161 3161 3159 3158 3157 3156 3155 3153 3152 3151 3149 3148 3147 3145 3144 3143 3142
3123 3125 3127 3127 3127 3128 3130 3131 3133 3134 3135 3136 3137 3138 3139 3141 3142 3144 3145 3146 3147 3148 3149 3150 3151 3152 3152 3153 3154 3154 3154 3156 3157 3157 3158 3158 3159 3159 3160 3161 3162 3162 3163 3164 3165 3166 3166 3167 3168 3168 3169 3169 3168 3168 3168 3168 3168 3168 3167 3167 3166 3166 3165 3165 3164 3163 3163 3161 3160 3159 3158 3157 3156 3155 3154 3152 3151 3149 3148 3147 3146 3145 3144 3143 3141
3119 3122 3124 3124 3125 3126 3127 3128 3130 3131 3132 3134 3135 3136 3137 3139 3140 3141 3142 3144 3145 3146 3146 3148 3149 3150 3151 3151 3152 3153 3153 3154 3155 3156 3156 3157 3157 3158 3159 3160 3160 3161 3162 3163 3164 3165 3165 3166 3166 3167 3167 3167 3167 3167 3167 3167 3166 3166 3166 3165 3165 3165 3164 3164 3163 3162 3162 3160 3159 3158 3157 3156 3154 3153 3153 3151 3150 3148 3147 3146 3145 3144 3143 3141 3140
3116 3119 3120 3121 3121 3123 3124 3125 3127 3129 3130 3132 3133 3134 3135 3136 3137 3139 3140 3142 3143 3143 3144 3145 3147 3148 3149 3150 3151 3152 3152 3153 3154 3154 3155 3156 3156 3157 3158 3159 3159 3159 3160 3161 3162 3163 3164 3165 3165 3165 3165 3165 3166 3166 3166 3165 3165 3164 3164 3164 3163 3163 3163 3163 3162 3161 3160 3159 3158 3157 3155 3154 3153 3152 3151 3150 3149 3148 3146 3145 3144 3143 3142 3140 3138
3112 3115 3116 3117 3118 3119 3121 3122 3124 3126 3128 3129 3131 3132 3133 3134 3135 3136 3138 3140 3141 3141 3142 3143 3145 3146 3147 3148 3149 3150 3150 3151 3152 3153 3153 3154 3155 3155 3156 3157 3158 3157 3158 3159 3160 3162 3163 3164 3164 3164 3164 3164 3164 3164 3164 3164 3163 3162 3162 3162 3162 3162 3161 3161 3161 3160 3159 3158 3157 3155 3154 3152 3151 3150 3149 3149 3148 3146 3145 3144 3143 3142 3140 3139 3137